Regional Weather Roundup
Issued by NWS

Home | Current Version | Previous Version | Text Only | Print | Product List | Glossary Off
Versions: 1 2 3 4 5 6 7 8 9 10 11 12 13 14 15 16 17 18 19 20 21 22 23 24 25 26 27 28 29 30 31 32 33 34 35 36 37 38 39 40 41 42 43 44 45 46 47 48 49 50

000
ASUS43 KFSD 020110
RWRSD

WEATHER ROUNDUP FOR SOUTH DAKOTA
NATIONAL WEATHER SERVICE SIOUX FALLS SD
800 PM CDT WED JUL 01 2015

NOTE: "FAIR" INDICATES FEW OR NO CLOUDS BELOW 12,000 FEET WITH NO
SIGNIFICANT WEATHER AND/OR OBSTRUCTIONS TO VISIBILITY.


SDZ001>005-009-010-012>017-020200-
NORTHWEST AND NORTH CENTRAL SOUTH DAKOTA

CITY           SKY/WX    TMP DP  RH WIND       PRES   REMARKS
BUFFALO          N/A     75  63  66 NE10      29.92F
FAITH            N/A     76  61  59 N9        29.97R
MOBRIDGE       MOSUNNY   79  65  62 NE6       29.91R
$$

SDZ012>016-024>037-041>051-057-063-072>074-020200-
SOUTHWEST AND SOUTH CENTRAL SOUTH DAKOTA

CITY           SKY/WX    TMP DP  RH WIND       PRES   REMARKS
RAPID CTY ARPT SUNNY     78  65  63 NE12      29.99R
PIERRE         PTSUNNY   77  68  73 E6        29.89R
CUSTER         PTSUNNY   72  59  63 E12       30.13S HAZE
ELLSWORTH AFB  SUNNY     79  64  59 NE10      29.99R
PHILIP         SUNNY     80  66  62 NE6       29.94R
PINE RIDGE     SUNNY     80  62  54 NE8       29.99R
SPEARFISH      FAIR      77  63  61 NE6       30.04S
WINNER         FAIR      80  65  59 E9        29.92R
$$

SDZ004>011-016>023-039-040-020200-
NORTHEAST SOUTH DAKOTA

CITY           SKY/WX    TMP DP  RH WIND       PRES   REMARKS
ABERDEEN       MOSUNNY   75  64  68 E8        29.93R
WATERTOWN      MOSUNNY   69  55  60 SE6       29.97R
BROOKINGS      PTSUNNY   68  54  60 E16       29.97S
SISSETON         N/A     70  54  56 SE10      29.95S
$$

SDZ017-020-022-023-036>040-048>070-020200-
SOUTHEAST SOUTH DAKOTA

CITY           SKY/WX    TMP DP  RH WIND       PRES   REMARKS
SIOUX FALLS    MOSUNNY   72  60  66 E12       29.94F
HURON          LGT RAIN  71  67  87 E6        29.92R FOG
CHAMBERLAIN    MOSUNNY   77  67  71 E8        29.91R
MITCHELL       MOSUNNY   74  67  78 E10       29.92R
YANKTON        PTSUNNY   73  64  73 E10       29.91R
$$

ABBREVIATIONS USED IN REMARKS
   TC - TEMPERATURE IN CELSIUS
  WCI - WIND CHILL INDEX
   HX - HEAT INDEX
  VSB - VISIBILITY



USA.gov is the U.S. government's official web portal to all federal, state and local government web resources and services.